Location: Heuchlingen
(48.5910°N, 10.1003°E)
Time: 06:10:19
(UTC+00:00)

Daily predictions for brighter satellites

Satellite Brightness Start Highest point End
(mag) Time Altitude Azimuth Time Altitude Azimuth Time Altitude Azimuth
ATLAS 2AS CENTAUR R/B 4.0 16:06:12 10° NW 16:11:29 23° N 16:16:41 10° NE
Cosmos 2061 Rocket 4.4 16:06:56 10° SSE 16:12:47 42° E 16:18:36 10° NNE
SJ-12 4.4 16:09:54 10° SE 16:13:16 31° ENE 16:16:40 10° N
Cosmos 1340 Rocket 3.5 16:12:57 10° SSW 16:16:44 54° WNW 16:20:31 10° N
ARIANE 6 FM1 Upper Stage 4.2 16:14:08 10° W 16:17:33 27° NNW 16:20:58 10° NNE
ARIANE 5 R/B 2.7 16:13:53 10° SE 16:18:40 49° ENE 16:23:29 10° N
Cosmos 1725 Rocket 4.0 16:12:40 10° S 16:18:54 73° E 16:25:13 10° NNE
Cosmos 2233 Rocket 4.2 16:14:31 10° SSE 16:20:35 53° E 16:26:42 10° NNE
Cosmos 2058 4.4 16:21:55 10° NNE 16:24:09 14° ENE 16:26:23 10° E
Aureole 3 Rocket 4.2 16:28:07 10° ESE 16:29:21 12° E 16:29:49 12° ENE
SMAP 3.0 16:24:44 10° SSE 16:29:21 70° ENE 16:34:01 10° N
Cosmos 2173 Rocket 4.5 16:23:18 10° SSW 16:29:28 65° WNW 16:35:35 10° N
Cosmos 1441 Rocket 3.0 16:26:55 10° NNW 16:30:17 78° W 16:33:37 10° S
Cosmos 1484 Rocket 4.2 16:31:21 10° S 16:34:38 39° W 16:37:59 10° NNW
USA 215 3.6 16:29:25 10° SE 16:35:56 70° SW 16:42:30 10° WNW
CORIOLIS 4.1 16:31:30 10° SSE 16:36:52 87° ENE 16:42:15 10° NNW
Cosmos 2082 Rocket 3.0 16:34:41 10° NNW 16:39:35 29° NE 16:44:27 10° ESE
Cosmos 1812 4.0 16:38:07 10° ESE 16:39:11 13° E 16:39:11 13° E
SL-08 R/B 4.4 16:33:52 10° S 16:39:58 83° E 16:46:04 10° N
Cosmos 1802 Rocket 4.4 16:35:01 10° SSW 16:41:25 74° W 16:47:52 10° N
Cosmos 1869 3.9 16:38:43 10° SSE 16:41:45 27° E 16:44:47 10° NNE
Landsat 7 3.7 16:37:49 10° SSE 16:42:26 68° ENE 16:47:05 10° N
AQUARIUS 4.2 16:38:13 10° SSE 16:42:30 55° ENE 16:46:50 10° N
SPOT 1/Viking Rocket 4.1 16:38:53 10° SE 16:43:34 36° ENE 16:48:16 10° N
Cosmos 1782 Rocket 3.5 16:40:11 10° S 16:44:37 77° E 16:49:03 10° NNE
Cosmos 2278 Rocket 3.0 16:39:52 10° SSE 16:44:41 30° ESE 16:49:10 12° NE
Cosmos 1943 Rocket 2.9 16:40:45 10° SSE 16:45:37 31° ESE 16:50:08 12° NE
Cosmos 407 Rocket 4.0 16:42:08 10° SSE 16:46:50 36° ESE 16:51:32 10° NE
Cosmos 2084 Rocket 3.4 16:42:46 10° SW 16:46:57 89° NW 16:50:44 13° NE
Cosmos 2344 4.3 16:42:11 10° NW 16:49:03 37° NNE 16:56:03 14° E
IRS-1C 4.1 16:44:03 10° SSE 16:49:22 87° ENE 16:54:44 10° NNW
Timation 1 Rocket 4.5 16:43:50 10° NNW 16:49:40 52° NE 16:55:28 10° SE
Cosmos 1300 Rocket 3.6 16:47:52 10° SSW 16:52:16 81° W 16:56:40 10° N
ERS-1 4.5 16:49:50 10° SSE 16:54:59 83° ENE 17:00:08 10° NNW
ATLAS 5 CENTAUR R/B 2.0 16:51:12 10° NW 16:55:31 72° SW 17:00:55 10° SSE
Tsikada Rocket 4.3 16:52:00 10° NNW 16:58:25 78° W 17:04:46 10° S
ATLAS CENTAUR R/B 3.0 16:55:42 10° W 16:58:28 22° NW 17:01:15 10° NNE
BREEZE-M DEB (TANK) 2.8 16:59:14 10° SW 17:01:31 56° SE 17:04:22 20° ENE
Cosmos 1975 Rocket 3.0 16:58:28 10° N 17:02:50 88° W 17:07:12 10° S
Spot 4 Rocket 4.3 16:58:25 10° SE 17:03:13 45° ENE 17:08:05 10° N
SL-16 R/B 3.6 16:58:08 10° N 17:04:06 47° WNW 17:10:01 10° SW
MOS 1 Rocket 3.0 17:01:50 10° SSE 17:06:05 68° ENE 17:10:32 10° N
COSMOS 2406 4.1 17:01:27 10° NNW 17:06:17 28° NE 17:08:32 21° E
UNK 4.5 17:05:50 10° N 17:10:21 55° WNW 17:14:50 10° SSW
SJ-6F 4.4 17:08:23 10° SSE 17:12:17 81° WSW 17:16:15 10° NNW
COSMO-SKYMED 1 3.1 17:10:37 23° NE 17:12:18 32° E 17:16:02 10° SSE
USA 281 4.0 17:09:14 20° E 17:12:20 29° NE 17:17:49 10° NNW
SKYMED 2 3.8 17:09:02 10° NNE 17:13:16 47° E 17:17:27 10° S
BREEZE-M DEB (TANK) 2.3 17:12:21 10° WSW 17:14:50 64° SSE 17:17:12 26° E
ISS -3.0 17:12:43 10° SW 17:15:50 37° SSE 17:16:32 32° ESE
CZ-4 R/B 4.2 17:12:22 10° SSE 17:16:19 71° ENE 17:20:17 10° N
CZ-2D R/B 4.2 17:13:45 10° S 17:16:44 40° W 17:19:45 10° NNW
Cosmos 1763 Rocket 3.4 17:12:42 10° NNW 17:17:58 87° ENE 17:23:07 10° SSE
Cosmos 540 Rocket 3.3 17:13:27 10° NNW 17:18:37 76° ENE 17:23:43 10° SSE
CZ-4C R/B 3.6 17:15:25 10° W 17:19:34 27° NNW 17:24:07 12° NNE
Cosmos 1833 Rocket 4.0 17:16:17 10° NW 17:21:34 42° WSW 17:26:50 10° S
Cosmos 1140 Rocket 3.9 17:19:24 10° SW 17:24:31 61° WNW 17:29:39 10° NNE
Helios 1A Rocket 2.8 17:28:22 42° ESE 17:28:22 42° ESE 17:31:14 10° S
NOAA 6 4.2 17:24:03 10° SE 17:28:59 49° ENE 17:33:56 10° N
SL-12 R/B(2) 4.3 17:23:05 10° SSW 17:31:00 75° SE 17:39:17 15° NE
Cosmos 1602 3.9 17:28:29 10° N 17:30:33 38° N 17:30:33 38° N
RESURS DK-1 2.2 17:27:51 10° NNW 17:31:54 84° WSW 17:35:25 13° SSE
Nadezhda 4 Rocket 4.0 17:26:38 10° N 17:32:52 58° ENE 17:39:00 10° SSE
Cosmos 2251 Rocket 3.6 17:32:24 10° S 17:37:31 55° ESE 17:39:54 30° NE
Cosmos 1862 3.9 17:36:18 10° N 17:38:34 34° NNE 17:38:34 34° NNE
Geosat 3.9 17:41:31 27° SE 17:44:12 67° ENE 17:49:12 10° NNW
YAOGAN 1 2.4 17:40:30 10° SSE 17:44:46 88° ENE 17:49:03 10° NNW
PSLV R/B 3.2 17:41:36 10° SSE 17:45:40 88° ENE 17:49:42 10° NNW
Timation 2 Rocket 4.2 17:42:43 10° SSW 17:49:36 87° WNW 17:55:09 17° NNE
Resurs 1-3 3.5 17:47:22 10° SSE 17:51:40 85° WSW 17:56:01 10° NNW
CZ-2D R/B 4.1 17:48:30 10° S 17:52:33 56° W 17:56:42 10° NNW
Cosmos 1428 Rocket 4.4 17:48:08 10° N 17:54:25 69° E 18:00:40 10° SSE
Cosmos 841 Rocket 3.6 17:50:19 10° NNW 17:55:28 53° ENE 17:55:38 52° ENE
Cosmos 489 Rocket 4.3 17:50:32 10° NNW 17:56:49 71° ENE 18:00:28 26° SE
SJ 16-02 2.2 17:55:05 10° S 17:57:46 35° SSE 17:57:46 35° SSE
Okean 2 Rocket 3.3 17:55:04 10° S 17:58:32 52° SSE 17:58:32 52° SSE
Cosmos 2058 3.3 17:56:47 10° NNW 18:00:41 57° W 18:04:34 10° S
Resurs 01 Rocket 3.0 18:03:53 26° N 18:03:53 26° N 18:05:56 10° N
ATLAS 2AS CENTAUR R/B 3.3 17:58:06 10° NW 18:04:22 37° NNE 18:05:02 36° NE
Cosmos 1536 Rocket 3.6 18:00:06 10° NNW 18:04:32 76° W 18:08:56 10° S
Cosmos 44 Rocket 3.1 18:01:52 10° SW 18:06:40 90° NNE 18:07:11 71° NE
Cosmos 468 Rocket 4.2 18:02:22 10° NNW 18:07:33 67° WSW 18:12:06 13° S
Cosmos 1812 4.4 18:09:18 10° SW 18:11:01 23° WSW 18:11:01 23° WSW
Meteor 2-1 Rocket 4.3 18:07:06 10° S 18:12:18 58° ESE 18:12:18 58° ESE
Cosmos 1190 Rocket 3.9 18:09:28 10° SSW 18:14:47 89° WNW 18:15:50 59° NNE
Aureole 3 Rocket 4.3 18:13:19 10° SW 18:15:57 26° WNW 18:15:59 26° WNW
Cosmos 1464 Rocket 4.2 18:12:23 10° SSW 18:18:40 72° W 18:24:56 10° N
Cosmos 2082 Rocket 2.7 18:18:30 10° NW 18:24:00 58° WSW 18:27:17 24° S
Cosmos 2278 Rocket 2.9 18:22:59 10° SW 18:28:29 51° NW 18:31:01 30° N
Cosmos 1954 Rocket 4.0 18:23:33 10° SSW 18:28:34 79° WSW 18:28:34 79° WSW
Cosmos 1943 Rocket 3.0 18:23:43 10° SW 18:29:09 48° NW 18:31:40 29° N
Cosmos 2034 Rocket 3.9 18:24:14 10° S 18:30:26 85° W 18:36:44 10° N
Cosmos 1092 Rocket 3.9 18:41:11 10° N 18:47:15 81° WNW 18:47:15 81° WNW
COSMO-SKYMED 1 4.4 18:46:58 26° NW 18:47:32 27° WNW 18:51:01 10° WSW
COSMOS 2406 3.5 18:45:23 10° NNW 18:50:37 63° W 18:50:37 63° W
ISS -0.3 18:49:11 10° W 18:49:28 12° W 18:49:28 12° W
USA 281 3.2 18:56:07 78° SW 18:56:17 79° WSW 19:02:55 10° NNW
Cosmos 2026 Rocket 4.2 18:50:51 10° NNW 18:56:51 63° W 18:57:33 59° SW
Meteor 2-3 Rocket 4.4 18:57:38 10° NNW 19:03:03 51° W 19:03:03 51° W
Cosmos 2344 3.9 18:56:25 10° NW 19:04:24 85° SW 19:06:06 65° SSE
CZ-4C R/B 4.2 19:05:40 10° NW 19:09:04 20° N 19:09:04 20° N
ATLAS 2AS CENTAUR R/B 4.1 19:49:03 10° NW 19:52:28 32° NW 19:52:28 32° NW
